Time,TemperatureF,DewpointF,PressureIn,WindDirection,WindDirectionDegrees,WindSpeedMPH,WindSpeedGustMPH,Humidity,HourlyPrecipIn,Conditions,Clouds,dailyrainin,SoftwareType,DateUTC
2013-08-22 00:00:00,81.0,74.6,29.89,ESE,112,0.0,-999.0,81,-99.99,,,0.00,Acu-Link.com,2013-08-22 05:00:00,
2013-08-22 00:15:00,80.6,74.2,29.89,ENE,67,0.0,-999.0,81,-99.99,,,0.00,Acu-Link.com,2013-08-22 05:15:00,
2013-08-22 00:30:00,80.4,74.4,29.89,NE,45,0.0,-999.0,82,-99.99,,,0.00,Acu-Link.com,2013-08-22 05:30:00,
2013-08-22 00:45:00,80.6,74.9,29.89,East,90,0.0,-999.0,83,-99.99,,,0.00,Acu-Link.com,2013-08-22 05:45:00,
2013-08-22 01:00:00,80.8,75.1,29.89,East,90,2.7,-999.0,83,-99.99,,,0.00,Acu-Link.com,2013-08-22 06:00:00,
2013-08-22 01:15:00,80.8,75.5,29.88,East,90,2.7,-999.0,84,-99.99,,,0.00,Acu-Link.com,2013-08-22 06:15:00,
2013-08-22 01:30:00,80.8,75.5,29.89,ENE,67,1.1,-999.0,84,-99.99,,,0.00,Acu-Link.com,2013-08-22 06:30:00,
2013-08-22 01:45:00,80.8,75.5,29.88,ESE,112,0.0,-999.0,84,-99.99,,,0.00,Acu-Link.com,2013-08-22 06:45:00,
2013-08-22 02:01:00,80.6,75.3,29.88,ESE,112,1.7,-999.0,84,-99.99,,,0.00,Acu-Link.com,2013-08-22 07:01:00,
2013-08-22 02:16:00,80.1,74.8,29.86,ESE,112,0.0,-999.0,84,-99.99,,,0.00,Acu-Link.com,2013-08-22 07:16:00,
2013-08-22 02:31:00,79.5,74.2,29.86,NE,45,0.0,-999.0,84,-99.99,,,0.00,Acu-Link.com,2013-08-22 07:31:00,
2013-08-22 02:46:00,79.0,74.1,29.88,NE,45,0.0,-999.0,85,-99.99,,,0.00,Acu-Link.com,2013-08-22 07:46:00,
2013-08-22 03:01:00,78.6,74.0,29.87,NE,45,0.0,-999.0,86,-99.99,,,0.00,Acu-Link.com,2013-08-22 08:01:00,
2013-08-22 03:16:00,78.4,74.2,29.88,NE,45,0.0,-999.0,87,-99.99,,,0.00,Acu-Link.com,2013-08-22 08:16:00,
2013-08-22 03:31:00,78.1,73.9,29.87,NE,45,0.0,-999.0,87,-99.99,,,0.00,Acu-Link.com,2013-08-22 08:31:00,
2013-08-22 03:47:00,77.9,73.7,29.85,NE,45,0.0,-999.0,87,-99.99,,,0.00,Acu-Link.com,2013-08-22 08:47:00,
2013-08-22 04:02:00,77.5,73.7,29.86,WSW,247,0.0,-999.0,88,-99.99,,,0.00,Acu-Link.com,2013-08-22 09:02:00,
2013-08-22 04:17:00,77.4,73.9,29.87,South,180,0.0,-999.0,89,-99.99,,,0.00,Acu-Link.com,2013-08-22 09:17:00,
2013-08-22 04:32:00,77.0,73.8,29.86,South,180,0.0,-999.0,90,-99.99,,,0.00,Acu-Link.com,2013-08-22 09:32:00,
2013-08-22 04:47:00,77.0,74.2,29.84,WNW,292,0.0,-999.0,91,-99.99,,,0.00,Acu-Link.com,2013-08-22 09:47:00,
2013-08-22 05:02:00,77.0,74.5,29.85,WNW,292,0.0,-999.0,92,-99.99,,,0.00,Acu-Link.com,2013-08-22 10:02:00,
2013-08-22 05:17:00,76.8,74.3,29.87,WNW,292,0.0,-999.0,92,-99.99,,,0.00,Acu-Link.com,2013-08-22 10:17:00,
2013-08-22 05:33:00,76.6,74.1,29.87,NNW,337,0.0,-999.0,92,-99.99,,,0.00,Acu-Link.com,2013-08-22 10:33:00,
2013-08-22 05:48:00,76.8,74.6,29.86,WNW,292,0.0,-999.0,93,-99.99,,,0.00,Acu-Link.com,2013-08-22 10:48:00,
2013-08-22 07:35:00,77.2,75.3,29.86,North,0,0.0,-999.0,94,-99.99,,,0.00,Acu-Link.com,2013-08-22 12:35:00,
2013-08-22 07:50:00,78.3,76.4,29.87,NW,315,0.0,-999.0,94,-99.99,,,0.00,Acu-Link.com,2013-08-22 12:50:00,
2013-08-22 08:05:00,79.2,77.3,29.87,North,0,1.1,-999.0,94,-99.99,,,0.00,Acu-Link.com,2013-08-22 13:05:00,
2013-08-22 08:20:00,79.9,77.4,29.87,NNE,22,0.0,-999.0,92,-99.99,,,0.00,Acu-Link.com,2013-08-22 13:20:00,
2013-08-22 08:36:00,81.0,77.8,29.87,WSW,247,2.7,-999.0,90,-99.99,,,0.00,Acu-Link.com,2013-08-22 13:36:00,
2013-08-22 08:51:00,81.7,77.1,29.87,NNE,22,0.0,-999.0,86,-99.99,,,0.00,Acu-Link.com,2013-08-22 13:51:00,
2013-08-22 09:06:00,82.4,76.3,29.88,NE,45,1.7,-999.0,82,-99.99,,,0.00,Acu-Link.com,2013-08-22 14:06:00,
2013-08-22 09:21:00,83.7,77.6,29.87,NW,315,3.2,-999.0,82,-99.99,,,0.00,Acu-Link.com,2013-08-22 14:21:00,
2013-08-22 09:36:00,85.1,78.2,29.87,SW,225,0.0,-999.0,80,-99.99,,,0.00,Acu-Link.com,2013-08-22 14:36:00,
2013-08-22 09:51:00,85.5,77.8,29.87,ENE,67,1.7,-999.0,78,-99.99,,,0.00,Acu-Link.com,2013-08-22 14:51:00,
2013-08-22 10:06:00,88.2,78.8,29.88,NNE,22,3.7,-999.0,74,-99.99,,,0.00,Acu-Link.com,2013-08-22 15:06:00,
2013-08-22 10:21:00,88.0,79.1,29.88,ENE,67,1.7,-999.0,75,-99.99,,,0.00,Acu-Link.com,2013-08-22 15:21:00,
2013-08-22 10:36:00,89.1,79.7,29.87,NNW,337,2.2,-999.0,74,-99.99,,,0.00,Acu-Link.com,2013-08-22 15:36:00,
2013-08-22 10:52:00,88.3,78.5,29.88,NNE,22,1.1,-999.0,73,-99.99,,,0.00,Acu-Link.com,2013-08-22 15:52:00,
2013-08-22 11:07:00,87.8,78.5,29.88,NNW,337,4.2,-999.0,74,-99.99,,,0.00,Acu-Link.com,2013-08-22 16:07:00,
2013-08-22 11:22:00,86.9,77.2,29.88,NE,45,2.7,-999.0,73,-99.99,,,0.00,Acu-Link.com,2013-08-22 16:22:00,
2013-08-22 11:37:00,87.8,77.2,29.87,North,0,1.1,-999.0,71,-99.99,,,0.00,Acu-Link.com,2013-08-22 16:37:00,
2013-08-22 11:52:00,88.3,77.2,29.86,SE,135,0.0,-999.0,70,-99.99,,,0.00,Acu-Link.com,2013-08-22 16:52:00,
2013-08-22 12:07:00,89.4,77.9,29.85,ENE,67,2.7,-999.0,69,-99.99,,,0.00,Acu-Link.com,2013-08-22 17:07:00,
2013-08-22 12:22:00,88.2,77.1,29.85,North,0,2.2,-999.0,70,-99.99,,,0.00,Acu-Link.com,2013-08-22 17:22:00,
2013-08-22 12:37:00,89.4,77.0,29.85,ENE,67,2.7,-999.0,67,-99.99,,,0.00,Acu-Link.com,2013-08-22 17:37:00,
2013-08-22 12:52:00,92.1,77.7,29.84,NNE,22,2.7,-999.0,63,-99.99,,,0.00,Acu-Link.com,2013-08-22 17:52:00,
2013-08-22 13:07:00,90.3,76.9,29.84,NE,45,1.1,-999.0,65,-99.99,,,0.00,Acu-Link.com,2013-08-22 18:07:00,
2013-08-22 13:23:00,93.6,76.6,29.83,ESE,112,2.2,-999.0,58,-99.99,,,0.00,Acu-Link.com,2013-08-22 18:23:00,
2013-08-22 13:38:00,94.3,75.6,29.83,ESE,112,4.2,-999.0,55,-99.99,,,0.00,Acu-Link.com,2013-08-22 18:38:00,
2013-08-22 13:53:00,95.9,75.4,29.84,ESE,112,6.3,-999.0,52,-99.99,,,0.00,Acu-Link.com,2013-08-22 18:53:00,
2013-08-22 14:08:00,93.6,75.5,29.83,East,90,4.2,-999.0,56,-99.99,,,0.00,Acu-Link.com,2013-08-22 19:08:00,
2013-08-22 14:23:00,96.3,77.5,29.81,NNE,22,2.7,-999.0,55,-99.99,,,0.00,Acu-Link.com,2013-08-22 19:23:00,
2013-08-22 14:38:00,94.3,75.6,29.80,NNE,22,3.2,-999.0,55,-99.99,,,0.00,Acu-Link.com,2013-08-22 19:38:00,
2013-08-22 14:54:00,94.5,73.5,29.79,NW,315,1.7,-999.0,51,-99.99,,,0.00,Acu-Link.com,2013-08-22 19:54:00,
2013-08-22 15:09:00,94.1,75.4,29.78,North,0,4.7,-999.0,55,-99.99,,,0.00,Acu-Link.com,2013-08-22 20:09:00,
2013-08-22 15:24:00,95.7,74.6,29.77,East,90,4.2,-999.0,51,-99.99,,,0.00,Acu-Link.com,2013-08-22 20:24:00,
2013-08-22 15:39:00,97.2,73.6,29.77,East,90,6.8,-999.0,47,-99.99,,,0.00,Acu-Link.com,2013-08-22 20:39:00,
2013-08-22 15:54:00,96.6,74.9,29.79,ESE,112,5.8,-999.0,50,-99.99,,,0.00,Acu-Link.com,2013-08-22 20:54:00,
2013-08-22 16:09:00,96.8,75.0,29.78,ESE,112,4.7,-999.0,50,-99.99,,,0.00,Acu-Link.com,2013-08-22 21:09:00,
2013-08-22 16:24:00,96.1,73.8,29.78,South,180,2.7,-999.0,49,-99.99,,,0.00,Acu-Link.com,2013-08-22 21:24:00,
2013-08-22 16:39:00,95.5,75.0,29.77,ESE,112,4.7,-999.0,52,-99.99,,,0.00,Acu-Link.com,2013-08-22 21:39:00,
2013-08-22 16:54:00,92.8,74.8,29.76,NE,45,4.7,-999.0,56,-99.99,,,0.00,Acu-Link.com,2013-08-22 21:54:00,
2013-08-22 17:10:00,93.0,74.9,29.75,East,90,6.3,-999.0,56,-99.99,,,0.00,Acu-Link.com,2013-08-22 22:10:00,
2013-08-22 17:25:00,93.4,75.3,29.77,East,90,5.3,-999.0,56,-99.99,,,0.00,Acu-Link.com,2013-08-22 22:25:00,
2013-08-22 17:40:00,92.1,75.2,29.78,NE,45,3.2,-999.0,58,-99.99,,,0.00,Acu-Link.com,2013-08-22 22:40:00,
2013-08-22 17:55:00,90.0,75.2,29.76,SSE,157,2.7,-999.0,62,-99.99,,,0.00,Acu-Link.com,2013-08-22 22:55:00,
2013-08-22 18:10:00,87.8,74.1,29.75,ENE,67,3.7,-999.0,64,-99.99,,,0.00,Acu-Link.com,2013-08-22 23:10:00,
2013-08-22 18:25:00,86.7,74.8,29.77,East,90,10.4,-999.0,68,-99.99,,,0.00,Acu-Link.com,2013-08-22 23:25:00,
2013-08-22 18:40:00,86.2,75.2,29.77,ESE,112,3.7,-999.0,70,-99.99,,,0.00,Acu-Link.com,2013-08-22 23:40:00,
2013-08-22 18:55:00,85.8,75.3,29.76,East,90,4.7,-999.0,71,-99.99,,,0.00,Acu-Link.com,2013-08-22 23:55:00,
2013-08-22 19:10:00,85.3,75.6,29.78,NNE,22,7.3,-999.0,73,-99.99,,,0.00,Acu-Link.com,2013-08-23 00:10:00,
2013-08-22 19:26:00,84.9,76.1,29.78,East,90,4.7,-999.0,75,-99.99,,,0.00,Acu-Link.com,2013-08-23 00:26:00,
2013-08-22 19:41:00,84.6,76.2,29.77,East,90,5.3,-999.0,76,-99.99,,,0.00,Acu-Link.com,2013-08-23 00:41:00,
2013-08-22 19:56:00,84.4,76.0,29.80,SSE,157,2.7,-999.0,76,-99.99,,,0.00,Acu-Link.com,2013-08-23 00:56:00,
2013-08-22 20:11:00,84.0,75.2,29.81,ENE,67,5.3,-999.0,75,-99.99,,,0.00,Acu-Link.com,2013-08-23 01:11:00,
2013-08-22 20:26:00,83.8,75.4,29.80,NE,45,6.3,-999.0,76,-99.99,,,0.00,Acu-Link.com,2013-08-23 01:26:00,
2013-08-22 20:41:00,83.7,75.3,29.78,NE,45,5.3,-999.0,76,-99.99,,,0.00,Acu-Link.com,2013-08-23 01:41:00,
2013-08-22 20:56:00,83.5,75.1,29.79,ESE,112,5.8,-999.0,76,-99.99,,,0.00,Acu-Link.com,2013-08-23 01:56:00,
2013-08-22 21:11:00,83.3,74.9,29.81,ENE,67,3.2,-999.0,76,-99.99,,,0.00,Acu-Link.com,2013-08-23 02:11:00,
2013-08-22 21:26:00,83.1,75.1,29.82,ENE,67,1.7,-999.0,77,-99.99,,,0.00,Acu-Link.com,2013-08-23 02:26:00,
2013-08-22 21:42:00,82.9,74.9,29.80,North,0,3.7,-999.0,77,-99.99,,,0.00,Acu-Link.com,2013-08-23 02:42:00,
2013-08-22 21:57:00,82.8,74.8,29.79,SE,135,2.2,-999.0,77,-99.99,,,0.00,Acu-Link.com,2013-08-23 02:57:00,
2013-08-22 22:12:00,82.8,74.8,29.82,ENE,67,2.2,-999.0,77,-99.99,,,0.00,Acu-Link.com,2013-08-23 03:12:00,
2013-08-22 22:27:00,82.6,75.0,29.83,ESE,112,4.2,-999.0,78,-99.99,,,0.00,Acu-Link.com,2013-08-23 03:27:00,
2013-08-22 22:42:00,82.6,75.0,29.85,SE,135,3.7,-999.0,78,-99.99,,,0.00,Acu-Link.com,2013-08-23 03:42:00,
2013-08-22 22:57:00,82.2,75.0,29.84,ESE,112,2.2,-999.0,79,-99.99,,,0.00,Acu-Link.com,2013-08-23 03:57:00,
2013-08-22 23:12:00,82.0,74.8,29.84,ESE,112,1.1,-999.0,79,-99.99,,,0.00,Acu-Link.com,2013-08-23 04:12:00,
2013-08-22 23:27:00,81.7,74.9,29.85,East,90,2.2,-999.0,80,-99.99,,,0.00,Acu-Link.com,2013-08-23 04:27:00,
2013-08-22 23:42:00,81.5,74.7,29.85,ENE,67,0.0,-999.0,80,-99.99,,,0.00,Acu-Link.com,2013-08-23 04:42:00,
2013-08-22 23:58:00,81.0,74.2,29.85,East,90,0.0,-999.0,80,-99.99,,,0.00,Acu-Link.com,2013-08-23 04:58:00,